ProjectID,Date,Electric Generation,Electric Utility Import,Facility Electric Load
,YYYY-MM-DD,kW,kW,kW
450,2017-06-01,0.0,,0.0
450,2017-06-02,0.0,,0.0
450,2017-06-03,0.0,,0.0
450,2017-06-04,0.0,,0.0
450,2017-06-05,0.0,,0.0
450,2017-06-06,0.0,,0.0
450,2017-06-07,0.0,,0.0
450,2017-06-08,0.0,,0.0
450,2017-06-09,0.0,,0.0
450,2017-06-10,0.0,,0.0
450,2017-06-11,0.0,,0.0
450,2017-06-12,0.0,,0.0
450,2017-06-13,488.8333333333333,,488.8333333333333
450,2017-06-14,521.8333333333334,,521.8333333333334
450,2017-06-15,248.33333333333334,,248.33333333333334
450,2017-06-16,83.83333333333333,,83.83333333333333
450,2017-06-17,175.5,,175.5
450,2017-06-18,329.5,,329.5
450,2017-06-19,237.0,,237.0
450,2017-06-20,450.3333333333333,,450.3333333333333
450,2017-06-21,440.3333333333333,,440.3333333333333
450,2017-06-22,523.1666666666666,,523.1666666666666
450,2017-06-23,276.3333333333333,,276.3333333333333
450,2017-06-24,539.3333333333334,,539.3333333333334
450,2017-06-25,494.0,,494.0
450,2017-06-26,487.1666666666667,,487.1666666666667
450,2017-06-27,417.5,,417.5
450,2017-06-28,459.3333333333333,,459.3333333333333
450,2017-06-29,395.0,,395.0
450,2017-06-30,382.5,,382.5
450,2017-07-01,206.0,,206.0
450,2017-07-02,496.8333333333333,,496.8333333333333
450,2017-07-03,511.8333333333333,,511.8333333333333
450,2017-07-04,541.3333333333334,,541.3333333333334
450,2017-07-05,474.8333333333333,,474.8333333333333
450,2017-07-06,424.5,,424.5
450,2017-07-07,387.0,,387.0
450,2017-07-08,391.0,,391.0
450,2017-07-09,559.3333333333334,,559.3333333333334
450,2017-07-10,421.6666666666667,,421.6666666666667
450,2017-07-11,301.8333333333333,,301.8333333333333
450,2017-07-12,286.3333333333333,,286.3333333333333
450,2017-07-13,263.1666666666667,,263.1666666666667
450,2017-07-14,143.0,,143.0
450,2017-07-15,424.8333333333333,,424.8333333333333
450,2017-07-16,521.6666666666666,,521.6666666666666
450,2017-07-17,407.0,,407.0
450,2017-07-18,459.5,,459.5
450,2017-07-19,577.1666666666666,,577.1666666666666
450,2017-07-20,463.0,,463.0
450,2017-07-21,527.6666666666666,,527.6666666666666
450,2017-07-22,324.3333333333333,,324.3333333333333
450,2017-07-23,290.0,,290.0
450,2017-07-24,225.66666666666666,,225.66666666666666
450,2017-07-25,194.0,,194.0
450,2017-07-26,376.5,,376.5
450,2017-07-27,165.33333333333334,,165.33333333333334
450,2017-07-28,346.3333333333333,,346.3333333333333
450,2017-07-29,527.6666666666666,,527.6666666666666
450,2017-07-30,594.3333333333334,,594.3333333333334
450,2017-07-31,535.3333333333334,,535.3333333333334
450,2017-08-01,519.3333333333334,,519.3333333333334
450,2017-08-02,368.8333333333333,,368.8333333333333
450,2017-08-03,532.8333333333334,,532.8333333333334
450,2017-08-04,283.1666666666667,,283.1666666666667
450,2017-08-05,371.3333333333333,,371.3333333333333
450,2017-08-06,436.3333333333333,,436.3333333333333
450,2017-08-07,74.0,,74.0
450,2017-08-08,412.3333333333333,,412.3333333333333
450,2017-08-09,477.8333333333333,,477.8333333333333
450,2017-08-10,473.5,,473.5
450,2017-08-11,216.0,,216.0
450,2017-08-12,315.6666666666667,,315.6666666666667
450,2017-08-13,438.0,,438.0
450,2017-08-14,280.0,,280.0
450,2017-08-15,217.66666666666666,,217.66666666666666
450,2017-08-16,475.1666666666667,,475.1666666666667
450,2017-08-17,483.3333333333333,,483.3333333333333
450,2017-08-18,108.5,,108.5
450,2017-08-19,417.1666666666667,,417.1666666666667
450,2017-08-20,470.3333333333333,,470.3333333333333
450,2017-08-21,411.1666666666667,,411.1666666666667
450,2017-08-22,442.0,,442.0
450,2017-08-23,386.5,,386.5
450,2017-08-24,436.0,,436.0
450,2017-08-25,471.5,,471.5
450,2017-08-26,455.1666666666667,,455.1666666666667
450,2017-08-27,511.5,,511.5
450,2017-08-28,357.5,,357.5
450,2017-08-29,87.16666666666667,,87.16666666666667
450,2017-08-30,525.0,,525.0
450,2017-08-31,279.1666666666667,,279.1666666666667
450,2017-09-01,519.6666666666666,,519.6666666666666
450,2017-09-02,372.6666666666667,,372.6666666666667
450,2017-09-03,154.33333333333334,,154.33333333333334
450,2017-09-04,517.3333333333334,,517.3333333333334
450,2017-09-05,239.16666666666666,,239.16666666666666
450,2017-09-06,40.0,,40.0
450,2017-09-07,327.1666666666667,,327.1666666666667
450,2017-09-08,253.0,,253.0
450,2017-09-09,294.6666666666667,,294.6666666666667
450,2017-09-10,534.3333333333334,,534.3333333333334
450,2017-09-11,516.6666666666666,,516.6666666666666
450,2017-09-12,478.6666666666667,,478.6666666666667
450,2017-09-13,396.8333333333333,,396.8333333333333
450,2017-09-14,128.83333333333334,,128.83333333333334
450,2017-09-15,202.5,,202.5
450,2017-09-16,383.3333333333333,,383.3333333333333
450,2017-09-17,374.1666666666667,,374.1666666666667
450,2017-09-18,497.8333333333333,,497.8333333333333
450,2017-09-19,510.5,,510.5
450,2017-09-20,366.8333333333333,,366.8333333333333
450,2017-09-21,416.0,,416.0
450,2017-09-22,517.8333333333334,,517.8333333333334
450,2017-09-23,510.1666666666667,,510.1666666666667
450,2017-09-24,485.0,,485.0
450,2017-09-25,452.6666666666667,,452.6666666666667
450,2017-09-26,376.6666666666667,,376.6666666666667
450,2017-09-27,482.6666666666667,,482.6666666666667
450,2017-09-28,475.1666666666667,,475.1666666666667
450,2017-09-29,407.6666666666667,,407.6666666666667
450,2017-09-30,256.5,,256.5
450,2017-10-01,524.1666666666666,,524.1666666666666
450,2017-10-02,519.5,,519.5
450,2017-10-03,499.0,,499.0
450,2017-10-04,499.1666666666667,,499.1666666666667
450,2017-10-05,303.8333333333333,,303.8333333333333
450,2017-10-06,316.1666666666667,,316.1666666666667
450,2017-10-07,221.66666666666666,,221.66666666666666
450,2017-10-08,180.16666666666666,,180.16666666666666
450,2017-10-09,43.166666666666664,,43.166666666666664
450,2017-10-10,0.0,,0.0
450,2017-10-11,0.0,,0.0
450,2017-10-12,0.0,,0.0
450,2017-10-13,0.0,,0.0
450,2017-10-14,0.0,,0.0
450,2017-10-15,0.0,,0.0
450,2017-10-16,0.0,,0.0
450,2017-10-17,0.0,,0.0
450,2017-10-18,0.0,,0.0
450,2017-10-19,386.0,,386.0
450,2017-10-20,471.3333333333333,,471.3333333333333
450,2017-10-21,398.3333333333333,,398.3333333333333
450,2017-10-22,406.5,,406.5
450,2017-10-23,67.0,,67.0
450,2017-10-24,147.0,,147.0
450,2017-10-25,311.6666666666667,,311.6666666666667
450,2017-10-26,64.0,,64.0
450,2017-10-27,0.0,,0.0
450,2017-10-28,0.0,,0.0
450,2017-10-29,0.0,,0.0
450,2017-10-30,0.0,,0.0
450,2017-10-31,0.0,,0.0
450,2017-11-01,28.833333333333332,,28.833333333333332
450,2017-11-02,169.33333333333334,,169.33333333333334
450,2017-11-03,118.33333333333333,,118.33333333333333
450,2017-11-04,337.3333333333333,,337.3333333333333
450,2017-11-05,16.166666666666668,,16.166666666666668
450,2017-11-06,52.166666666666664,,52.166666666666664
450,2017-11-07,71.33333333333333,,71.33333333333333
450,2017-11-08,234.83333333333334,,234.83333333333334
450,2017-11-09,86.33333333333333,,86.33333333333333
450,2017-11-10,274.0,,274.0
450,2017-11-11,402.8333333333333,,402.8333333333333
450,2017-11-12,368.3333333333333,,368.3333333333333
450,2017-11-13,95.5,,95.5
450,2017-11-14,80.33333333333333,,80.33333333333333
450,2017-11-15,286.3333333333333,,286.3333333333333
450,2017-11-16,101.33333333333333,,101.33333333333333
450,2017-11-17,335.1666666666667,,335.1666666666667
450,2017-11-18,52.5,,52.5
450,2017-11-19,85.83333333333333,,85.83333333333333
450,2017-11-20,99.83333333333333,,99.83333333333333
450,2017-11-21,305.8333333333333,,305.8333333333333
450,2017-11-22,103.5,,103.5
450,2017-11-23,311.5,,311.5
450,2017-11-24,336.3333333333333,,336.3333333333333
450,2017-11-25,221.5,,221.5
450,2017-11-26,107.16666666666667,,107.16666666666667
450,2017-11-27,144.5,,144.5
450,2017-11-28,318.3333333333333,,318.3333333333333
450,2017-11-29,318.1666666666667,,318.1666666666667
450,2017-11-30,259.0,,259.0
450,2017-12-01,158.16666666666666,,158.16666666666666
450,2017-12-02,189.5,,189.5
450,2017-12-03,60.5,,60.5
450,2017-12-04,262.8333333333333,,262.8333333333333
450,2017-12-05,6.166666666666667,,6.166666666666667
450,2017-12-06,270.3333333333333,,270.3333333333333
450,2017-12-07,262.1666666666667,,262.1666666666667
450,2017-12-08,188.16666666666666,,188.16666666666666
450,2017-12-09,14.166666666666666,,14.166666666666666
450,2017-12-10,31.0,,31.0
450,2017-12-11,87.16666666666667,,87.16666666666667
450,2017-12-12,10.0,,10.0
450,2017-12-13,140.16666666666666,,140.16666666666666
450,2017-12-14,22.666666666666668,,22.666666666666668
450,2017-12-15,6.833333333333333,,6.833333333333333
450,2017-12-16,4.0,,4.0
450,2017-12-17,2.1666666666666665,,2.1666666666666665
450,2017-12-18,6.5,,6.5
450,2017-12-19,168.16666666666666,,168.16666666666666
450,2017-12-20,117.33333333333333,,117.33333333333333
450,2017-12-21,291.6666666666667,,291.6666666666667
450,2017-12-22,14.166666666666666,,14.166666666666666
450,2017-12-23,7.0,,7.0
450,2017-12-24,196.33333333333334,,196.33333333333334
450,2017-12-25,9.5,,9.5
450,2017-12-26,17.5,,17.5
450,2017-12-27,61.333333333333336,,61.333333333333336
450,2017-12-28,69.66666666666667,,69.66666666666667
450,2017-12-29,67.33333333333333,,67.33333333333333
450,2017-12-30,1.5,,1.5
450,2017-12-31,1.8333333333333333,,1.8333333333333333
450,2018-01-01,10.166666666666666,,10.166666666666666
450,2018-01-02,3.8333333333333335,,3.8333333333333335
450,2018-01-03,8.666666666666666,,8.666666666666666
450,2018-01-04,0.16666666666666666,,0.16666666666666666
450,2018-01-05,22.666666666666668,,22.666666666666668
450,2018-01-06,49.166666666666664,,49.166666666666664
450,2018-01-07,91.33333333333333,,91.33333333333333
450,2018-01-08,20.833333333333332,,20.833333333333332
450,2018-01-09,27.833333333333332,,27.833333333333332
450,2018-01-10,250.0,,250.0
450,2018-01-11,80.83333333333333,,80.83333333333333
450,2018-01-12,14.333333333333334,,14.333333333333334
450,2018-01-13,285.8333333333333,,285.8333333333333
450,2018-01-14,353.3333333333333,,353.3333333333333
450,2018-01-15,238.0,,238.0
450,2018-01-16,5.833333333333333,,5.833333333333333
450,2018-01-17,0.16666666666666666,,0.16666666666666666
450,2018-01-18,8.666666666666666,,8.666666666666666
450,2018-01-19,94.33333333333333,,94.33333333333333
450,2018-01-20,206.66666666666666,,206.66666666666666
450,2018-01-21,322.0,,322.0
450,2018-01-22,38.333333333333336,,38.333333333333336
450,2018-01-23,113.16666666666667,,113.16666666666667
450,2018-01-24,139.66666666666666,,139.66666666666666
450,2018-01-25,386.8333333333333,,386.8333333333333
450,2018-01-26,372.5,,372.5
450,2018-01-27,303.6666666666667,,303.6666666666667
450,2018-01-28,163.66666666666666,,163.66666666666666
450,2018-01-29,308.0,,308.0
450,2018-01-30,97.0,,97.0
450,2018-01-31,276.6666666666667,,276.6666666666667
450,2018-02-01,40.5,,40.5
450,2018-02-02,0.0,,0.0
450,2018-02-03,0.0,,0.0
450,2018-02-04,0.0,,0.0
450,2018-02-05,0.0,,0.0
450,2018-02-06,83.16666666666667,,83.16666666666667
450,2018-02-07,0.0,,0.0
450,2018-02-08,1.6666666666666667,,1.6666666666666667
450,2018-02-09,0.5,,0.5
450,2018-02-10,47.5,,47.5
450,2018-02-11,30.166666666666668,,30.166666666666668
450,2018-02-12,296.3333333333333,,296.3333333333333
450,2018-02-13,451.8333333333333,,451.8333333333333
450,2018-02-14,114.66666666666667,,114.66666666666667
450,2018-02-15,187.83333333333334,,187.83333333333334
450,2018-02-16,54.333333333333336,,54.333333333333336
450,2018-02-17,292.8333333333333,,292.8333333333333
450,2018-02-18,210.5,,210.5
450,2018-02-19,101.33333333333333,,101.33333333333333
450,2018-02-20,382.6666666666667,,382.6666666666667
450,2018-02-21,270.1666666666667,,270.1666666666667
450,2018-02-22,28.0,,28.0
450,2018-02-23,21.5,,21.5
450,2018-02-24,0.0,,0.0
450,2018-02-25,0.0,,0.0
450,2018-02-26,0.0,,0.0
450,2018-02-27,0.0,,0.0
450,2018-02-28,203.5,,203.5
450,2018-03-01,204.5,,204.5
450,2018-03-02,0.0,,0.0
450,2018-03-03,0.0,,0.0
450,2018-03-04,0.0,,0.0
450,2018-03-05,0.0,,0.0
450,2018-03-06,160.33333333333334,,160.33333333333334
450,2018-03-07,3.6666666666666665,,3.6666666666666665
450,2018-03-08,18.0,,18.0
450,2018-03-09,129.5,,129.5
450,2018-03-10,79.83333333333333,,79.83333333333333
450,2018-03-11,451.5,,451.5
450,2018-03-12,266.3333333333333,,266.3333333333333
450,2018-03-13,18.333333333333332,,18.333333333333332
450,2018-03-14,133.0,,133.0
450,2018-03-15,219.5,,219.5
450,2018-03-16,282.6666666666667,,282.6666666666667
450,2018-03-17,554.5,,554.5
450,2018-03-18,554.6666666666666,,554.6666666666666
450,2018-03-19,549.6666666666666,,549.6666666666666
450,2018-03-20,296.5,,296.5
450,2018-03-21,146.0,,146.0
450,2018-03-22,472.8333333333333,,472.8333333333333
450,2018-03-23,423.1666666666667,,423.1666666666667
450,2018-03-24,550.8333333333334,,550.8333333333334
450,2018-03-25,332.0,,332.0
450,2018-03-26,564.5,,564.5
450,2018-03-27,279.0,,279.0
450,2018-03-28,174.0,,174.0
450,2018-03-29,49.0,,49.0
450,2018-03-30,216.33333333333334,,216.33333333333334
450,2018-03-31,534.0,,534.0
450,2018-04-01,384.8333333333333,,384.8333333333333
450,2018-04-02,106.16666666666667,,106.16666666666667
450,2018-04-03,0.0,,0.0
450,2018-04-04,0.0,,0.0
450,2018-04-05,0.0,,0.0
450,2018-04-06,0.0,,0.0
450,2018-04-07,0.0,,0.0
450,2018-04-08,0.0,,0.0
450,2018-04-09,0.0,,0.0
450,2018-04-10,0.0,,0.0
450,2018-04-11,0.0,,0.0
450,2018-04-12,0.0,,0.0
450,2018-04-13,0.0,,0.0
450,2018-04-14,0.0,,0.0
450,2018-04-15,0.0,,0.0
450,2018-04-16,0.0,,0.0
450,2018-04-17,0.0,,0.0
450,2018-04-18,0.0,,0.0
450,2018-04-19,0.0,,0.0
450,2018-04-20,0.0,,0.0
450,2018-04-21,0.0,,0.0
450,2018-04-22,0.0,,0.0
450,2018-04-23,0.0,,0.0
450,2018-04-24,0.0,,0.0
450,2018-04-25,0.0,,0.0
450,2018-04-26,0.0,,0.0
450,2018-04-27,0.0,,0.0
450,2018-04-28,0.0,,0.0
450,2018-04-29,0.0,,0.0
450,2018-04-30,0.0,,0.0
450,2018-05-01,0.0,,0.0
450,2018-05-02,0.0,,0.0
450,2018-05-03,0.0,,0.0
450,2018-05-04,0.0,,0.0
450,2018-05-05,0.0,,0.0
450,2018-05-06,0.0,,0.0
450,2018-05-07,0.0,,0.0
450,2018-05-08,0.0,,0.0
450,2018-05-09,0.0,,0.0
450,2018-05-10,0.0,,0.0
450,2018-05-11,0.0,,0.0
450,2018-05-12,0.0,,0.0
450,2018-05-13,0.0,,0.0
450,2018-05-14,0.0,,0.0
450,2018-05-15,0.0,,0.0
450,2018-05-16,0.0,,0.0
450,2018-05-17,0.0,,0.0
450,2018-05-18,0.0,,0.0
450,2018-05-19,0.0,,0.0
450,2018-05-20,0.0,,0.0
450,2018-05-21,0.0,,0.0
450,2018-05-22,0.0,,0.0
450,2018-05-23,0.0,,0.0
450,2018-05-24,0.0,,0.0
450,2018-05-25,0.0,,0.0
450,2018-05-26,0.0,,0.0
450,2018-05-27,0.0,,0.0
450,2018-05-28,0.0,,0.0
450,2018-05-29,0.0,,0.0
450,2018-05-30,0.0,,0.0
450,2018-05-31,0.0,,0.0
450,2018-06-01,0.0,,0.0
450,2018-06-02,0.0,,0.0
450,2018-06-03,0.0,,0.0
450,2018-06-04,0.0,,0.0
450,2018-06-05,0.0,,0.0
450,2018-06-06,0.0,,0.0
450,2018-06-07,0.0,,0.0
450,2018-06-08,0.0,,0.0
450,2018-06-09,0.0,,0.0
450,2018-06-10,0.0,,0.0
450,2018-06-11,0.0,,0.0
450,2018-06-12,0.0,,0.0
450,2018-06-13,0.0,,0.0
450,2018-06-14,0.0,,0.0
450,2018-06-15,0.0,,0.0
450,2018-06-16,0.0,,0.0
450,2018-06-17,0.0,,0.0
450,2018-06-18,0.0,,0.0
450,2018-06-19,0.0,,0.0
450,2018-06-20,0.0,,0.0
450,2018-06-21,0.0,,0.0
450,2018-06-22,0.0,,0.0
450,2018-06-23,0.0,,0.0
450,2018-06-24,0.0,,0.0
450,2018-06-25,0.0,,0.0
450,2018-06-26,0.0,,0.0
450,2018-06-27,0.0,,0.0
450,2018-06-28,0.0,,0.0
450,2018-06-29,178.0,,178.0
450,2018-06-30,375.5,,375.5
450,2018-07-01,339.8333333333333,,339.8333333333333
450,2018-07-02,371.0,,371.0
450,2018-07-03,332.3333333333333,,332.3333333333333
450,2018-07-04,287.0,,287.0
450,2018-07-05,267.1666666666667,,267.1666666666667
450,2018-07-06,248.66666666666666,,248.66666666666666
450,2018-07-07,397.6666666666667,,397.6666666666667
450,2018-07-08,387.5,,387.5
450,2018-07-09,385.5,,385.5
450,2018-07-10,349.8333333333333,,349.8333333333333
450,2018-07-11,313.5,,313.5
450,2018-07-12,338.8333333333333,,338.8333333333333
450,2018-07-13,354.6666666666667,,354.6666666666667
450,2018-07-14,303.3333333333333,,303.3333333333333
450,2018-07-15,315.0,,315.0
450,2018-07-16,350.5,,350.5
450,2018-07-17,117.0,,117.0
450,2018-07-18,369.3333333333333,,369.3333333333333
450,2018-07-19,390.1666666666667,,390.1666666666667
450,2018-07-20,369.0,,369.0
450,2018-07-21,295.6666666666667,,295.6666666666667
450,2018-07-22,180.83333333333334,,180.83333333333334
450,2018-07-23,135.66666666666666,,135.66666666666666
450,2018-07-24,168.66666666666666,,168.66666666666666
450,2018-07-25,126.16666666666667,,126.16666666666667
450,2018-07-26,291.1666666666667,,291.1666666666667
450,2018-07-27,185.0,,185.0
450,2018-07-28,297.6666666666667,,297.6666666666667
450,2018-07-29,259.6666666666667,,259.6666666666667
450,2018-07-30,207.83333333333334,,207.83333333333334
450,2018-07-31,221.66666666666666,,221.66666666666666
450,2018-08-01,150.83333333333334,,150.83333333333334
450,2018-08-02,150.0,,150.0
450,2018-08-03,156.66666666666666,,156.66666666666666
450,2018-08-04,275.5,,275.5
450,2018-08-05,315.8333333333333,,315.8333333333333
450,2018-08-06,336.1666666666667,,336.1666666666667
450,2018-08-07,302.0,,302.0
450,2018-08-08,185.33333333333334,,185.33333333333334
450,2018-08-09,306.3333333333333,,306.3333333333333
450,2018-08-10,283.6666666666667,,283.6666666666667
450,2018-08-11,65.0,,65.0
450,2018-08-12,238.83333333333334,,238.83333333333334
450,2018-08-13,81.83333333333333,,81.83333333333333
450,2018-08-14,208.66666666666666,,208.66666666666666
450,2018-08-15,289.0,,289.0
450,2018-08-16,248.33333333333334,,248.33333333333334
450,2018-08-17,183.33333333333334,,183.33333333333334
450,2018-08-18,178.33333333333334,,178.33333333333334
450,2018-08-19,212.66666666666666,,212.66666666666666
450,2018-08-20,184.0,,184.0
450,2018-08-21,104.83333333333333,,104.83333333333333
450,2018-08-22,222.33333333333334,,222.33333333333334
450,2018-08-23,313.6666666666667,,313.6666666666667
450,2018-08-24,354.5,,354.5
450,2018-08-25,291.6666666666667,,291.6666666666667
450,2018-08-26,227.33333333333334,,227.33333333333334
450,2018-08-27,246.83333333333334,,246.83333333333334
450,2018-08-28,315.8333333333333,,315.8333333333333
450,2018-08-29,283.0,,283.0
450,2018-08-30,287.5,,287.5
450,2018-08-31,52.166666666666664,,52.166666666666664
450,2018-09-01,132.66666666666666,,132.66666666666666
450,2018-09-02,99.33333333333333,,99.33333333333333
450,2018-09-03,328.1666666666667,,328.1666666666667
450,2018-09-04,312.3333333333333,,312.3333333333333
450,2018-09-05,302.1666666666667,,302.1666666666667
450,2018-09-06,190.33333333333334,,190.33333333333334
450,2018-09-07,95.33333333333333,,95.33333333333333
450,2018-09-08,60.666666666666664,,60.666666666666664
450,2018-09-09,68.16666666666667,,68.16666666666667
450,2018-09-10,19.166666666666668,,19.166666666666668
450,2018-09-11,140.66666666666666,,140.66666666666666
450,2018-09-12,85.66666666666667,,85.66666666666667
450,2018-09-13,114.66666666666667,,114.66666666666667
450,2018-09-14,141.16666666666666,,141.16666666666666
450,2018-09-15,178.16666666666666,,178.16666666666666
450,2018-09-16,337.5,,337.5
450,2018-09-17,127.0,,127.0
450,2018-09-18,152.16666666666666,,152.16666666666666
450,2018-09-19,208.5,,208.5
450,2018-09-20,50.333333333333336,,50.333333333333336
450,2018-09-21,15.333333333333334,,15.333333333333334
450,2018-09-22,173.83333333333334,,173.83333333333334
450,2018-09-23,129.83333333333334,,129.83333333333334
450,2018-09-24,161.16666666666666,,161.16666666666666
450,2018-09-25,17.333333333333332,,17.333333333333332
450,2018-09-26,94.0,,94.0
450,2018-09-27,198.66666666666666,,198.66666666666666
450,2018-09-28,131.33333333333334,,131.33333333333334
450,2018-09-29,252.16666666666666,,252.16666666666666
450,2018-09-30,181.16666666666666,,181.16666666666666
450,2018-10-01,153.0,,153.0
450,2018-10-02,18.833333333333332,,18.833333333333332
450,2018-10-03,193.83333333333334,,193.83333333333334
450,2018-10-04,103.33333333333333,,103.33333333333333
450,2018-10-05,305.6666666666667,,305.6666666666667
450,2018-10-06,20.666666666666668,,20.666666666666668
450,2018-10-07,123.16666666666667,,123.16666666666667
450,2018-10-08,16.166666666666668,,16.166666666666668
450,2018-10-09,92.66666666666667,,92.66666666666667
450,2018-10-10,146.66666666666666,,146.66666666666666
450,2018-10-11,13.5,,13.5
450,2018-10-12,127.83333333333333,,127.83333333333333
450,2018-10-13,137.0,,137.0
450,2018-10-14,204.83333333333334,,204.83333333333334
450,2018-10-15,10.0,,10.0
450,2018-10-16,221.66666666666666,,221.66666666666666
450,2018-10-17,164.5,,164.5
450,2018-10-18,324.5,,324.5
450,2018-10-19,265.1666666666667,,265.1666666666667
450,2018-10-20,79.0,,79.0
450,2018-10-21,103.0,,103.0
450,2018-10-22,75.5,,75.5
450,2018-10-23,212.83333333333334,,212.83333333333334
450,2018-10-24,122.5,,122.5
450,2018-10-25,77.16666666666667,,77.16666666666667
450,2018-10-26,108.66666666666667,,108.66666666666667
450,2018-10-27,34.666666666666664,,34.666666666666664
450,2018-10-28,51.333333333333336,,51.333333333333336
450,2018-10-29,75.0,,75.0
450,2018-10-30,262.8333333333333,,262.8333333333333
450,2018-10-31,123.16666666666667,,123.16666666666667
450,2018-11-01,80.0,,80.0
450,2018-11-02,28.0,,28.0
450,2018-11-03,119.66666666666667,,119.66666666666667
450,2018-11-04,204.66666666666666,,204.66666666666666
450,2018-11-05,20.166666666666668,,20.166666666666668
450,2018-11-06,14.0,,14.0
450,2018-11-07,188.83333333333334,,188.83333333333334
450,2018-11-08,219.5,,219.5
450,2018-11-09,22.666666666666668,,22.666666666666668
450,2018-11-10,128.83333333333334,,128.83333333333334
450,2018-11-11,261.5,,261.5
450,2018-11-12,0.0,,0.0
450,2018-11-13,0.0,,0.0
450,2018-11-14,0.0,,0.0
450,2018-11-15,0.0,,0.0
450,2018-11-16,0.0,,0.0
450,2018-11-17,0.0,,0.0
450,2018-11-18,0.0,,0.0
450,2018-11-19,0.0,,0.0
450,2018-11-20,0.0,,0.0
450,2018-11-21,0.0,,0.0
450,2018-11-22,0.0,,0.0
450,2018-11-23,0.0,,0.0
450,2018-11-24,0.0,,0.0
450,2018-11-25,0.0,,0.0
450,2018-11-26,0.0,,0.0
450,2018-11-27,0.0,,0.0
450,2018-11-28,0.0,,0.0
450,2018-11-29,0.0,,0.0
450,2018-11-30,0.0,,0.0
450,2018-12-01,0.0,,0.0
450,2018-12-02,0.0,,0.0
450,2018-12-03,0.0,,0.0
450,2018-12-04,0.0,,0.0
450,2018-12-05,0.0,,0.0
450,2018-12-06,0.0,,0.0
450,2018-12-07,0.0,,0.0
450,2018-12-08,0.0,,0.0
450,2018-12-09,0.0,,0.0
450,2018-12-10,0.0,,0.0
450,2018-12-11,3.3333333333333335,,3.3333333333333335
450,2018-12-12,8.833333333333334,,8.833333333333334
450,2018-12-13,1.5,,1.5
450,2018-12-14,6.0,,6.0
450,2018-12-15,54.333333333333336,,54.333333333333336
450,2018-12-16,13.833333333333334,,13.833333333333334
450,2018-12-17,37.333333333333336,,37.333333333333336
450,2018-12-18,114.16666666666667,,114.16666666666667
450,2018-12-19,193.33333333333334,,193.33333333333334
450,2018-12-20,119.0,,119.0
450,2018-12-21,6.0,,6.0
450,2018-12-22,22.166666666666668,,22.166666666666668
450,2018-12-23,51.166666666666664,,51.166666666666664
450,2018-12-24,28.666666666666668,,28.666666666666668
450,2018-12-25,35.833333333333336,,35.833333333333336
450,2018-12-26,31.666666666666668,,31.666666666666668
450,2018-12-27,129.33333333333334,,129.33333333333334
450,2018-12-28,9.666666666666666,,9.666666666666666
450,2018-12-29,30.333333333333332,,30.333333333333332
450,2018-12-30,4.0,,4.0
450,2018-12-31,5.833333333333333,,5.833333333333333
450,2019-01-01,64.5,,64.5
450,2019-01-02,97.33333333333333,,97.33333333333333
450,2019-01-03,4.5,,4.5
450,2019-01-04,59.166666666666664,,59.166666666666664
450,2019-01-05,7.833333333333333,,7.833333333333333
450,2019-01-06,70.66666666666667,,70.66666666666667
450,2019-01-07,118.16666666666667,,118.16666666666667
450,2019-01-08,15.166666666666666,,15.166666666666666
450,2019-01-09,31.5,,31.5
450,2019-01-10,31.0,,31.0
450,2019-01-11,254.66666666666666,,254.66666666666666
450,2019-01-12,126.0,,126.0
450,2019-01-13,275.5,,275.5
450,2019-01-14,349.0,,349.0
450,2019-01-15,219.0,,219.0
450,2019-01-16,61.666666666666664,,61.666666666666664